When you browse on this site, cookies collect data to enhance your experience and personalize the content and advertising you see.
Visit our Privacy Policy to learn more. By continuing to use the site, you agree to this use of cookies and data.
  • Em Portugal
  • Lista de países
  • Para 7 dias
  • Temperatura da água
  • Mapas de satélite
  • Mapa do tempo
  • Widgets de tempo
  • user-avatar
    Iniciar Sessão

    Previsão horária em Shishovka

    Hoje, 24 Abril, Quarta-feira

    Tempo Temperatura Precipitação Vento Pressão Humidade
    00:00 +4°C° 0 mm 2 m/s 744 mmHg 76%
    01:00 +3°C° 0 mm 2 m/s 744 mmHg 77%
    02:00 +3°C° 0 mm 2 m/s 744 mmHg 78%
    03:00 +3°C° 0 mm 2 m/s 744 mmHg 79%
    04:00 +3°C° 0 mm 2 m/s 744 mmHg 82%
    05:00 +4°C° 0 mm 2 m/s 743 mmHg 81%
    06:00 +4°C° 0 mm 2 m/s 743 mmHg 79%
    07:00 +4°C° 0 mm 2 m/s 743 mmHg 78%
    08:00 +4°C° 0 mm 3 m/s 743 mmHg 72%
    09:00 +5°C° 0 mm 3 m/s 742 mmHg 67%
    10:00 +6°C° 0 mm 4 m/s 742 mmHg 61%
    11:00 +6°C° 0.1 mm 4 m/s 742 mmHg 65%
    12:00 +6°C° 0.1 mm 5 m/s 741 mmHg 69%
    13:00 +6°C° 0.1 mm 5 m/s 741 mmHg 73%
    14:00 +6°C° 0.1 mm 5 m/s 741 mmHg 76%
    15:00 +6°C° 0.1 mm 4 m/s 740 mmHg 79%
    16:00 +6°C° 0.1 mm 4 m/s 740 mmHg 82%
    17:00 +6°C° 0.1 mm 4 m/s 740 mmHg 83%
    18:00 +6°C° 0.1 mm 4 m/s 740 mmHg 84%
    19:00 +7°C° 0.1 mm 3 m/s 740 mmHg 86%
    20:00 +7°C° 0 mm 3 m/s 740 mmHg 85%
    21:00 +5°C° 0 mm 4 m/s 740 mmHg 84%
    22:00 +4°C° 0 mm 4 m/s 741 mmHg 83%
    23:00 +4°C° 0 mm 3 m/s 741 mmHg 85%

    Amanhã, 25 Abril, Quinta-feira

    Tempo Temperatura Precipitação Vento Pressão Humidade
    00:00 +3°C° 0 mm 3 m/s 741 mmHg 88%
    01:00 +2°C° 0 mm 3 m/s 741 mmHg 91%
    02:00 +2°C° 0 mm 3 m/s 741 mmHg 93%
    03:00 +1°C° 0 mm 3 m/s 741 mmHg 94%
    04:00 +2°C° 0 mm 2 m/s 741 mmHg 96%
    05:00 +1°C° 0 mm 3 m/s 741 mmHg 93%
    06:00 +2°C° 0 mm 3 m/s 742 mmHg 90%
    07:00 +3°C° 0 mm 3 m/s 742 mmHg 86%
    08:00 +4°C° 0 mm 3 m/s 742 mmHg 80%
    09:00 +5°C° 0 mm 4 m/s 742 mmHg 73%
    10:00 +6°C° 0 mm 4 m/s 743 mmHg 66%
    11:00 +6°C° 0 mm 4 m/s 743 mmHg 62%
    12:00 +7°C° 0 mm 4 m/s 743 mmHg 58%
    13:00 +7°C° 0 mm 4 m/s 743 mmHg 54%
    14:00 +7°C° 0 mm 4 m/s 743 mmHg 52%
    15:00 +7°C° 0 mm 4 m/s 743 mmHg 51%
    16:00 +7°C° 0 mm 4 m/s 743 mmHg 50%
    17:00 +8°C° 0 mm 3 m/s 743 mmHg 52%
    18:00 +7°C° 0 mm 3 m/s 743 mmHg 54%
    19:00 +6°C° 0 mm 2 m/s 744 mmHg 56%
    20:00 +5°C° 0 mm 2 m/s 744 mmHg 61%
    21:00 +4°C° 0 mm 2 m/s 744 mmHg 65%
    22:00 +2°C° 0 mm 2 m/s 744 mmHg 69%
    23:00 +3°C° 0 mm 1 m/s 744 mmHg 69%

    Depois de amanhã, 26 Abril, Sexta-feira

    Tempo Temperatura Precipitação Vento Pressão Humidade
    00:00 +2°C° 0 mm 1 m/s 744 mmHg 70%
    01:00 +2°C° 0 mm 1 m/s 744 mmHg 70%
    02:00 +2°C° 0 mm 1 m/s 744 mmHg 71%
    03:00 +1°C° 0 mm 1 m/s 744 mmHg 73%
    04:00 +1°C° 0 mm 1 m/s 744 mmHg 74%
    05:00 +1°C° 0 mm 2 m/s 744 mmHg 71%
    06:00 +2°C° 0 mm 2 m/s 744 mmHg 69%
    07:00 +3°C° 0 mm 2 m/s 745 mmHg 66%
    08:00 +3°C° 0.1 mm 3 m/s 745 mmHg 65%
    09:00 +4°C° 0.1 mm 4 m/s 745 mmHg 64%
    10:00 +4°C° 0.1 mm 4 m/s 745 mmHg 64%
    11:00 +5°C° 0.1 mm 4 m/s 745 mmHg 57%
    12:00 +5°C° 0.1 mm 4 m/s 745 mmHg 51%
    13:00 +6°C° 0.1 mm 4 m/s 745 mmHg 45%
    14:00 +6°C° 0 mm 4 m/s 745 mmHg 43%
    15:00 +6°C° 0 mm 4 m/s 745 mmHg 41%
    16:00 +6°C° 0 mm 4 m/s 745 mmHg 39%
    17:00 +5°C° 0 mm 3 m/s 745 mmHg 43%
    18:00 +4°C° 0 mm 3 m/s 745 mmHg 47%
    19:00 +4°C° 0 mm 2 m/s 745 mmHg 51%
    20:00 +4°C° 0 mm 1 m/s 746 mmHg 55%
    21:00 +3°C° 0 mm 1 m/s 746 mmHg 58%
    22:00 +1°C° 0 mm 0 m/s 746 mmHg 61%
    23:00 +1°C° 0 mm 1 m/s 746 mmHg 62%

    27 Abril, Sábado

    Tempo Temperatura Precipitação Vento Pressão Humidade
    00:00 +1°C° 0 mm 1 m/s 746 mmHg 62%
    01:00 +1°C° 0 mm 1 m/s 746 mmHg 62%
    02:00 +1°C° 0 mm 1 m/s 745 mmHg 64%
    03:00 +1°C° 0 mm 1 m/s 745 mmHg 65%
    04:00 -2°C° 0 mm 2 m/s 745 mmHg 67%
    05:00 +1°C° 0 mm 2 m/s 745 mmHg 63%
    06:00 +1°C° 0 mm 3 m/s 744 mmHg 59%
    07:00 +1°C° 0 mm 4 m/s 744 mmHg 56%
    08:00 +4°C° 0 mm 4 m/s 744 mmHg 52%
    09:00 +6°C° 0 mm 5 m/s 743 mmHg 49%
    10:00 +7°C° 0 mm 6 m/s 742 mmHg 45%
    11:00 +9°C° 0 mm 6 m/s 742 mmHg 44%
    12:00 +10°C° 0 mm 7 m/s 741 mmHg 43%
    13:00 +11°C° 0 mm 7 m/s 740 mmHg 42%
    14:00 +11°C° 0 mm 7 m/s 740 mmHg 43%
    15:00 +11°C° 0 mm 7 m/s 739 mmHg 43%
    16:00 +12°C° 0 mm 7 m/s 738 mmHg 43%
    17:00 +11°C° 0 mm 6 m/s 738 mmHg 46%
    18:00 +10°C° 0 mm 5 m/s 737 mmHg 50%
    19:00 +10°C° 0 mm 4 m/s 736 mmHg 53%
    20:00 +10°C° 0 mm 4 m/s 736 mmHg 56%
    21:00 +8°C° 0 mm 4 m/s 735 mmHg 59%
    22:00 +7°C° 0 mm 4 m/s 734 mmHg 61%
    23:00 +7°C° 0 mm 4 m/s 734 mmHg 71%

    28 Abril, Domingo

    Tempo Temperatura Precipitação Vento Pressão Humidade
    00:00 +7°C° 0 mm 4 m/s 733 mmHg 80%
    01:00 +7°C° 0 mm 4 m/s 732 mmHg 90%
    02:00 +7°C° 0.1 mm 4 m/s 732 mmHg 91%
    03:00 +7°C° 0.1 mm 4 m/s 731 mmHg 93%
    04:00 +8°C° 0.1 mm 3 m/s 731 mmHg 95%
    05:00 +8°C° 0.1 mm 3 m/s 731 mmHg 94%
    06:00 +8°C° 0.1 mm 3 m/s 731 mmHg 92%
    07:00 +8°C° 0.1 mm 3 m/s 731 mmHg 91%
    08:00 +5°C° 1.6 mm 4 m/s 731 mmHg 88%
    09:00 +3°C° 1.6 mm 4 m/s 731 mmHg 86%
    10:00 +1°C° 1.6 mm 5 m/s 731 mmHg 83%
    11:00 +2°C° 0.1 mm 5 m/s 732 mmHg 77%
    12:00 +3°C° 0.1 mm 5 m/s 733 mmHg 71%
    13:00 +5°C° 0.1 mm 5 m/s 733 mmHg 65%
    14:00 +5°C° 0 mm 5 m/s 734 mmHg 62%
    15:00 +3°C° 0 mm 5 m/s 735 mmHg 59%
    16:00 +3°C° 0 mm 5 m/s 736 mmHg 56%
    17:00 +2°C° 0 mm 5 m/s 736 mmHg 58%
    18:00 +3°C° 0 mm 4 m/s 737 mmHg 61%
    19:00 +1°C° 0 mm 4 m/s 737 mmHg 64%
    20:00 +1°C° 0 mm 3 m/s 738 mmHg 67%
    21:00 -1°C° 0 mm 3 m/s 738 mmHg 70%
    22:00 -2°C° 0 mm 3 m/s 739 mmHg 73%
    23:00 -2°C° 0 mm 3 m/s 739 mmHg 74%

    29 Abril, Segunda-feira

    Tempo Temperatura Precipitação Vento Pressão Humidade
    00:00 -4°C° 0 mm 3 m/s 740 mmHg 76%
    01:00 -4°C° 0 mm 3 m/s 740 mmHg 77%
    02:00 -4°C° 0 mm 4 m/s 740 mmHg 79%
    03:00 -4°C° 0 mm 4 m/s 741 mmHg 80%
    04:00 -4°C° 0 mm 4 m/s 741 mmHg 82%
    05:00 -4°C° 0.1 mm 4 m/s 741 mmHg 81%
    06:00 -4°C° 0.1 mm 4 m/s 742 mmHg 80%
    07:00 -3°C° 0.1 mm 4 m/s 742 mmHg 79%
    08:00 -3°C° 0.1 mm 4 m/s 742 mmHg 73%
    09:00 -2°C° 0.1 mm 4 m/s 742 mmHg 67%
    10:00 -1°C° 0.1 mm 4 m/s 742 mmHg 62%
    11:00 0°C° 0.1 mm 3 m/s 743 mmHg 57%
    12:00 +1°C° 0.1 mm 3 m/s 743 mmHg 51%
    13:00 +2°C° 0.1 mm 3 m/s 743 mmHg 46%
    14:00 +2°C° 0 mm 3 m/s 743 mmHg 44%
    15:00 +2°C° 0 mm 3 m/s 743 mmHg 42%
    16:00 +2°C° 0 mm 3 m/s 743 mmHg 40%
    17:00 +1°C° 0 mm 3 m/s 743 mmHg 44%
    18:00 +2°C° 0 mm 2 m/s 743 mmHg 48%
    19:00 +1°C° 0 mm 2 m/s 743 mmHg 51%
    20:00 +1°C° 0 mm 1 m/s 743 mmHg 55%
    21:00 0°C° 0 mm 1 m/s 743 mmHg 58%
    22:00 -2°C° 0 mm 1 m/s 743 mmHg 61%
    23:00 -2°C° 0 mm 1 m/s 743 mmHg 61%
    Mostrar mais